Year,Month,Day,Hour,Minute,Value (Times are PST for windgust in km/hr)
2015,07,04,00,00,4.80
2015,07,04,00,01,4.80
2015,07,04,00,02,4.80
2015,07,04,00,03,3.20
2015,07,04,00,04,3.20
2015,07,04,00,05,3.20
2015,07,04,00,06,1.60
2015,07,04,00,07,1.60
2015,07,04,00,08,4.80
2015,07,04,00,09,3.20
2015,07,04,00,10,3.20
2015,07,04,00,11,1.60
2015,07,04,00,12,1.60
2015,07,04,00,13,1.60
2015,07,04,00,14,6.40
2015,07,04,00,15,4.80
2015,07,04,00,16,3.20
2015,07,04,00,17,1.60
2015,07,04,00,18,6.40
2015,07,04,00,19,6.40
2015,07,04,00,20,6.40
2015,07,04,00,21,4.80
2015,07,04,00,22,1.60
2015,07,04,00,23,3.20
2015,07,04,00,24,1.60
2015,07,04,00,25,3.20
2015,07,04,00,26,3.20
2015,07,04,00,28,3.20
2015,07,04,00,29,4.80
2015,07,04,00,30,3.20
2015,07,04,00,31,4.80
2015,07,04,00,32,4.80
2015,07,04,00,33,3.20
2015,07,04,00,34,3.20
2015,07,04,00,35,3.20
2015,07,04,00,36,1.60
2015,07,04,00,37,1.60
2015,07,04,00,38,1.60
2015,07,04,00,41,3.20
2015,07,04,00,42,3.20
2015,07,04,00,43,3.20
2015,07,04,00,44,1.60
2015,07,04,00,45,3.20
2015,07,04,00,46,3.20
2015,07,04,00,47,3.20
2015,07,04,00,48,3.20
2015,07,04,00,49,3.20
2015,07,04,00,50,1.60
2015,07,04,00,51,3.20
2015,07,04,00,52,3.20
2015,07,04,00,53,3.20
2015,07,04,00,54,1.60
2015,07,04,00,55,3.20
2015,07,04,00,56,4.80
2015,07,04,00,57,4.80
2015,07,04,00,58,4.80
2015,07,04,00,59,1.60
2015,07,04,01,00,1.60
2015,07,04,01,01,1.60
2015,07,04,01,02,3.20
2015,07,04,01,03,4.80
2015,07,04,01,04,4.80
2015,07,04,01,05,6.40
2015,07,04,01,06,8.10
2015,07,04,01,07,11.30
2015,07,04,01,08,9.60
2015,07,04,01,09,6.40
2015,07,04,01,10,4.80
2015,07,04,01,11,6.40
2015,07,04,01,12,8.10
2015,07,04,01,13,4.80
2015,07,04,01,14,4.80
2015,07,04,01,15,1.60
2015,07,04,01,16,3.20
2015,07,04,01,17,3.20
2015,07,04,01,18,1.60
2015,07,04,01,19,1.60
2015,07,04,01,20,3.20
2015,07,04,01,21,1.60
2015,07,04,01,22,1.60
2015,07,04,01,23,3.20
2015,07,04,01,24,1.60
2015,07,04,01,25,1.60
2015,07,04,01,26,1.60
2015,07,04,01,27,3.20
2015,07,04,01,28,3.20
2015,07,04,01,29,4.80
2015,07,04,01,30,3.20
2015,07,04,01,31,4.80
2015,07,04,01,32,4.80
2015,07,04,01,33,4.80
2015,07,04,01,34,3.20
2015,07,04,01,35,1.60
2015,07,04,01,36,1.60
2015,07,04,01,37,1.60
2015,07,04,01,38,1.60
2015,07,04,01,39,1.60
2015,07,04,01,40,3.20
2015,07,04,01,41,3.20
2015,07,04,01,42,4.80
2015,07,04,01,43,4.80
2015,07,04,01,44,3.20
2015,07,04,01,45,3.20
2015,07,04,01,46,1.60
2015,07,04,01,47,1.60
2015,07,04,01,48,1.60
2015,07,04,01,49,1.60
2015,07,04,01,50,1.60
2015,07,04,01,51,1.60
2015,07,04,01,52,3.20
2015,07,04,01,53,3.20
2015,07,04,01,54,3.20
2015,07,04,01,55,3.20
2015,07,04,01,56,4.80
2015,07,04,01,57,3.20
2015,07,04,01,58,3.20
2015,07,04,01,59,3.20
2015,07,04,02,00,1.60
2015,07,04,02,01,3.20
2015,07,04,02,02,1.60
2015,07,04,02,03,1.60
2015,07,04,02,04,1.60
2015,07,04,02,05,1.60
2015,07,04,02,06,1.60
2015,07,04,02,07,4.80
2015,07,04,02,08,4.80
2015,07,04,02,09,4.80
2015,07,04,02,10,6.40
2015,07,04,02,11,4.80
2015,07,04,02,12,4.80
2015,07,04,02,13,3.20
2015,07,04,02,14,3.20
2015,07,04,02,15,3.20
2015,07,04,02,16,1.60
2015,07,04,02,17,1.60
2015,07,04,02,18,4.80
2015,07,04,02,19,3.20
2015,07,04,02,20,3.20
2015,07,04,02,21,1.60
2015,07,04,02,22,3.20
2015,07,04,02,23,3.20
2015,07,04,02,24,3.20
2015,07,04,02,25,1.60
2015,07,04,02,26,3.20
2015,07,04,02,27,1.60
2015,07,04,02,28,3.20
2015,07,04,02,29,3.20
2015,07,04,02,30,3.20
2015,07,04,02,31,3.20
2015,07,04,02,32,3.20
2015,07,04,02,33,1.60
2015,07,04,02,34,1.60
2015,07,04,02,35,1.60
2015,07,04,02,36,3.20
2015,07,04,02,37,3.20
2015,07,04,02,38,3.20
2015,07,04,02,39,3.20
2015,07,04,02,40,3.20
2015,07,04,02,41,3.20
2015,07,04,02,42,3.20
2015,07,04,02,43,3.20
2015,07,04,02,44,3.20
2015,07,04,02,45,3.20
2015,07,04,02,46,3.20
2015,07,04,02,47,4.80
2015,07,04,02,48,6.40
2015,07,04,02,49,4.80
2015,07,04,02,50,3.20
2015,07,04,02,51,3.20
2015,07,04,02,52,3.20
2015,07,04,02,53,3.20
2015,07,04,02,54,3.20
2015,07,04,02,55,3.20
2015,07,04,02,56,3.20
2015,07,04,02,57,3.20
2015,07,04,02,58,1.60
2015,07,04,02,59,3.20
2015,07,04,03,00,3.20
2015,07,04,03,01,3.20
2015,07,04,03,02,3.20
2015,07,04,03,03,3.20
2015,07,04,03,04,3.20
2015,07,04,03,05,1.60
2015,07,04,03,06,3.20
2015,07,04,03,07,4.80
2015,07,04,03,08,4.80
2015,07,04,03,09,4.80
2015,07,04,03,10,4.80
2015,07,04,03,11,4.80
2015,07,04,03,12,3.20
2015,07,04,03,13,3.20
2015,07,04,03,14,1.60
2015,07,04,03,15,3.20
2015,07,04,03,16,1.60
2015,07,04,03,19,1.60
2015,07,04,03,20,1.60
2015,07,04,03,21,3.20
2015,07,04,03,22,1.60
2015,07,04,03,23,1.60
2015,07,04,03,25,3.20
2015,07,04,03,26,3.20
2015,07,04,03,27,4.80
2015,07,04,03,28,4.80
2015,07,04,03,29,4.80
2015,07,04,03,30,4.80
2015,07,04,03,31,3.20
2015,07,04,03,32,4.80
2015,07,04,03,33,3.20
2015,07,04,03,34,3.20
2015,07,04,03,35,3.20
2015,07,04,03,36,1.60
2015,07,04,03,37,3.20
2015,07,04,03,38,3.20
2015,07,04,03,39,3.20
2015,07,04,03,40,3.20
2015,07,04,03,41,4.80
2015,07,04,03,42,4.80
2015,07,04,03,43,4.80
2015,07,04,03,44,3.20
2015,07,04,03,45,3.20
2015,07,04,03,46,1.60
2015,07,04,03,47,1.60
2015,07,04,03,48,1.60
2015,07,04,03,49,3.20
2015,07,04,03,50,3.20
2015,07,04,03,51,3.20
2015,07,04,03,52,3.20
2015,07,04,03,53,3.20
2015,07,04,03,54,4.80
2015,07,04,03,55,4.80
2015,07,04,03,56,3.20
2015,07,04,03,57,4.80
2015,07,04,03,58,4.80
2015,07,04,03,59,6.40
2015,07,04,04,00,3.20
2015,07,04,04,01,4.80
2015,07,04,04,02,3.20
2015,07,04,04,03,3.20
2015,07,04,04,04,1.60
2015,07,04,04,06,1.60
2015,07,04,04,07,4.80
2015,07,04,05,02,1.60
2015,07,04,05,03,3.20
2015,07,04,05,04,1.60
2015,07,04,05,07,1.60
2015,07,04,05,08,3.20
2015,07,04,05,09,1.60
2015,07,04,05,10,1.60
2015,07,04,05,12,3.20
2015,07,04,05,13,6.40
2015,07,04,05,14,3.20
2015,07,04,05,15,3.20
2015,07,04,05,16,1.60
2015,07,04,05,17,3.20
2015,07,04,05,18,6.40
2015,07,04,05,19,6.40
2015,07,04,05,20,6.40
2015,07,04,05,21,4.80
2015,07,04,05,22,3.20
2015,07,04,05,23,1.60
2015,07,04,05,25,1.60
2015,07,04,05,26,1.60
2015,07,04,05,27,1.60
2015,07,04,05,28,1.60
2015,07,04,05,29,1.60
2015,07,04,05,31,1.60
2015,07,04,05,32,1.60
2015,07,04,05,34,1.60
2015,07,04,05,35,1.60
2015,07,04,05,54,4.80
2015,07,04,05,55,4.80
2015,07,04,05,56,4.80
2015,07,04,05,57,3.20
2015,07,04,05,58,3.20
2015,07,04,05,59,3.20
2015,07,04,06,00,3.20
2015,07,04,06,01,3.20
2015,07,04,06,02,1.60
2015,07,04,06,03,3.20
2015,07,04,06,04,1.60
2015,07,04,06,06,1.60
2015,07,04,06,07,3.20
2015,07,04,06,08,3.20
2015,07,04,06,09,3.20
2015,07,04,06,10,3.20
2015,07,04,06,11,3.20
2015,07,04,06,12,3.20
2015,07,04,06,13,1.60
2015,07,04,06,14,1.60
2015,07,04,06,15,3.20
2015,07,04,06,16,3.20
2015,07,04,06,17,1.60
2015,07,04,06,18,1.60
2015,07,04,06,19,3.20
2015,07,04,06,20,3.20
2015,07,04,06,21,1.60
2015,07,04,06,22,1.60
2015,07,04,06,23,3.20
2015,07,04,06,24,3.20
2015,07,04,06,25,1.60
2015,07,04,06,26,3.20
2015,07,04,06,27,6.40
2015,07,04,06,28,4.80
2015,07,04,06,29,3.20
2015,07,04,06,30,1.60
2015,07,04,06,31,3.20
2015,07,04,06,32,3.20
2015,07,04,06,33,1.60
2015,07,04,06,34,1.60
2015,07,04,06,37,1.60
2015,07,04,06,40,3.20
2015,07,04,06,41,4.80
2015,07,04,06,42,6.40
2015,07,04,06,43,9.60
2015,07,04,06,44,8.10
2015,07,04,06,45,9.60
2015,07,04,06,46,6.40
2015,07,04,06,47,4.80
2015,07,04,06,48,3.20
2015,07,04,06,49,4.80
2015,07,04,06,50,3.20
2015,07,04,06,51,3.20
2015,07,04,06,52,6.40
2015,07,04,06,53,6.40
2015,07,04,06,54,6.40
2015,07,04,06,55,6.40
2015,07,04,06,56,4.80
2015,07,04,06,57,1.60
2015,07,04,06,58,3.20
2015,07,04,06,59,4.80
2015,07,04,07,00,3.20
2015,07,04,07,01,1.60
2015,07,04,07,02,3.20
2015,07,04,07,03,3.20
2015,07,04,07,04,4.80
2015,07,04,07,05,4.80
2015,07,04,07,06,4.80
2015,07,04,07,07,3.20
2015,07,04,07,08,9.60
2015,07,04,07,09,4.80
2015,07,04,07,10,3.20
2015,07,04,07,11,4.80
2015,07,04,07,12,4.80
2015,07,04,07,13,3.20
2015,07,04,07,14,3.20
2015,07,04,07,15,3.20
2015,07,04,07,16,4.80
2015,07,04,07,17,9.60
2015,07,04,07,18,9.60
2015,07,04,07,19,4.80
2015,07,04,07,20,3.20
2015,07,04,07,21,1.60
2015,07,04,07,22,1.60
2015,07,04,07,23,4.80
2015,07,04,07,24,3.20
2015,07,04,07,25,4.80
2015,07,04,07,26,6.40
2015,07,04,07,27,6.40
2015,07,04,07,28,4.80
2015,07,04,07,29,1.60
2015,07,04,07,30,1.60
2015,07,04,07,31,3.20
2015,07,04,07,32,3.20
2015,07,04,07,33,6.40
2015,07,04,07,34,6.40
2015,07,04,07,35,6.40
2015,07,04,07,36,6.40
2015,07,04,07,37,12.90
2015,07,04,07,38,8.10
2015,07,04,07,39,9.60
2015,07,04,07,40,4.80
2015,07,04,07,41,4.80
2015,07,04,07,42,3.20
2015,07,04,07,43,3.20
2015,07,04,07,44,3.20
2015,07,04,07,45,1.60
2015,07,04,07,46,8.10
2015,07,04,07,47,6.40
2015,07,04,07,48,6.40
2015,07,04,07,49,11.30
2015,07,04,07,50,4.80
2015,07,04,07,51,11.30
2015,07,04,07,52,12.90
2015,07,04,07,53,6.40
2015,07,04,07,54,6.40
2015,07,04,07,55,3.20
2015,07,04,07,56,11.30
2015,07,04,07,57,16.10
2015,07,04,07,58,14.50
2015,07,04,07,59,8.10
2015,07,04,08,00,9.60
2015,07,04,08,01,12.90
2015,07,04,08,02,9.60
2015,07,04,08,03,11.30
2015,07,04,08,04,6.40
2015,07,04,08,05,9.60
2015,07,04,08,06,9.60
2015,07,04,08,07,9.60
2015,07,04,08,08,20.90
2015,07,04,08,09,16.10
2015,07,04,08,10,16.10
2015,07,04,08,11,16.10
2015,07,04,08,12,6.40
2015,07,04,08,13,16.10
2015,07,04,08,14,8.10
2015,07,04,08,15,16.10
2015,07,04,08,16,14.50
2015,07,04,08,17,19.30
2015,07,04,08,18,14.50
2015,07,04,08,19,16.10
2015,07,04,08,20,25.70
2015,07,04,08,21,16.10
2015,07,04,08,22,22.50
2015,07,04,08,23,24.20
2015,07,04,08,24,9.60
2015,07,04,08,25,14.50
2015,07,04,08,26,14.50
2015,07,04,08,27,19.30
2015,07,04,08,28,25.70
2015,07,04,08,29,9.60
2015,07,04,08,30,25.70
2015,07,04,08,31,20.90
2015,07,04,08,32,20.90
2015,07,04,08,33,22.50
2015,07,04,08,34,22.50
2015,07,04,08,35,30.60
2015,07,04,08,36,20.90
2015,07,04,08,37,22.50
2015,07,04,08,38,17.70
2015,07,04,08,39,22.50
2015,07,04,08,40,20.90
2015,07,04,08,41,35.40
2015,07,04,08,42,16.10
2015,07,04,08,43,12.90
2015,07,04,08,44,9.60
2015,07,04,08,45,12.90
2015,07,04,08,46,11.30
2015,07,04,08,47,22.50
2015,07,04,08,48,17.70
2015,07,04,08,49,12.90
2015,07,04,08,50,14.50
2015,07,04,08,51,14.50
2015,07,04,08,52,9.60
2015,07,04,08,53,14.50
2015,07,04,08,54,19.30
2015,07,04,08,55,22.50
2015,07,04,08,56,16.10
2015,07,04,08,57,8.10
2015,07,04,08,58,11.30
2015,07,04,08,59,11.30
2015,07,04,09,00,24.20
2015,07,04,09,01,17.70
2015,07,04,09,02,20.90
2015,07,04,09,03,17.70
2015,07,04,09,04,12.90
2015,07,04,09,05,17.70
2015,07,04,09,06,12.90
2015,07,04,09,07,14.50
2015,07,04,09,08,20.90
2015,07,04,09,09,19.30
2015,07,04,09,10,17.70
2015,07,04,09,11,12.90
2015,07,04,09,12,19.30
2015,07,04,09,13,17.70
2015,07,04,09,14,14.50
2015,07,04,09,15,14.50
2015,07,04,09,16,6.40
2015,07,04,09,17,11.30
2015,07,04,09,18,12.90
2015,07,04,09,19,12.90
2015,07,04,09,20,11.30
2015,07,04,09,21,8.10
2015,07,04,09,22,19.30
2015,07,04,09,23,19.30
2015,07,04,09,24,20.90
2015,07,04,09,25,19.30
2015,07,04,09,26,19.30
2015,07,04,09,27,16.10
2015,07,04,09,28,12.90
2015,07,04,09,29,14.50
2015,07,04,09,30,11.30
2015,07,04,09,31,12.90
2015,07,04,09,32,17.70
2015,07,04,09,33,16.10
2015,07,04,09,34,14.50
2015,07,04,09,35,22.50
2015,07,04,09,36,19.30
2015,07,04,09,37,17.70
2015,07,04,09,38,19.30
2015,07,04,09,39,14.50
2015,07,04,09,40,14.50
2015,07,04,09,41,17.70
2015,07,04,09,42,14.50
2015,07,04,09,43,12.90
2015,07,04,09,44,11.30
2015,07,04,09,45,17.70
2015,07,04,09,46,20.90
2015,07,04,09,47,24.20
2015,07,04,09,48,17.70
2015,07,04,09,49,16.10
2015,07,04,09,50,14.50
2015,07,04,09,51,12.90
2015,07,04,09,52,9.60
2015,07,04,09,53,14.50
2015,07,04,09,54,19.30
2015,07,04,09,55,19.30
2015,07,04,09,56,9.60
2015,07,04,09,57,14.50
2015,07,04,09,58,14.50
2015,07,04,09,59,11.30
2015,07,04,10,00,6.40
2015,07,04,10,01,19.30
2015,07,04,10,02,16.10
2015,07,04,10,03,11.30
2015,07,04,10,04,19.30
2015,07,04,10,05,12.90
2015,07,04,10,06,14.50
2015,07,04,10,07,17.70
2015,07,04,10,08,19.30
2015,07,04,10,09,16.10
2015,07,04,10,10,17.70
2015,07,04,10,11,16.10
2015,07,04,10,12,12.90
2015,07,04,10,13,17.70
2015,07,04,10,14,17.70
2015,07,04,10,15,19.30
2015,07,04,10,16,12.90
2015,07,04,10,17,6.40
2015,07,04,10,18,9.60
2015,07,04,10,19,12.90
2015,07,04,10,20,19.30
2015,07,04,10,21,17.70
2015,07,04,10,22,20.90
2015,07,04,10,23,16.10
2015,07,04,10,24,9.60
2015,07,04,10,25,16.10
2015,07,04,10,26,19.30
2015,07,04,10,27,19.30
2015,07,04,10,28,12.90
2015,07,04,10,29,22.50
2015,07,04,10,30,12.90
2015,07,04,10,31,20.90
2015,07,04,10,32,9.60
2015,07,04,10,33,12.90
2015,07,04,10,34,11.30
2015,07,04,10,35,16.10
2015,07,04,10,36,19.30
2015,07,04,10,37,14.50
2015,07,04,10,38,9.60
2015,07,04,10,39,17.70
2015,07,04,10,40,24.20
2015,07,04,10,41,19.30
2015,07,04,10,42,25.70
2015,07,04,10,43,41.80
2015,07,04,10,44,22.50
2015,07,04,10,45,14.50
2015,07,04,10,46,19.30
2015,07,04,10,47,20.90
2015,07,04,10,48,14.50
2015,07,04,10,49,19.30
2015,07,04,10,50,17.70
2015,07,04,10,51,16.10
2015,07,04,10,52,17.70
2015,07,04,10,53,19.30
2015,07,04,10,54,16.10
2015,07,04,10,55,25.70
2015,07,04,10,56,14.50
2015,07,04,10,57,14.50
2015,07,04,10,58,16.10
2015,07,04,10,59,22.50
2015,07,04,11,00,19.30
2015,07,04,11,01,12.90
2015,07,04,11,02,24.20
2015,07,04,11,03,12.90
2015,07,04,11,04,24.20
2015,07,04,11,05,25.70
2015,07,04,11,06,9.60
2015,07,04,11,07,16.10
2015,07,04,11,08,22.50
2015,07,04,11,09,25.70
2015,07,04,11,10,17.70
2015,07,04,11,11,12.90
2015,07,04,11,12,24.20
2015,07,04,11,13,14.50
2015,07,04,11,14,19.30
2015,07,04,11,15,8.10
2015,07,04,11,16,25.70
2015,07,04,11,17,11.30
2015,07,04,11,18,20.90
2015,07,04,11,19,16.10
2015,07,04,11,20,20.90
2015,07,04,11,21,11.30
2015,07,04,11,22,8.10
2015,07,04,11,23,9.60
2015,07,04,11,24,17.70
2015,07,04,11,25,17.70
2015,07,04,11,26,17.70
2015,07,04,11,27,24.20
2015,07,04,11,28,16.10
2015,07,04,11,29,16.10
2015,07,04,11,30,14.50
2015,07,04,11,31,17.70
2015,07,04,11,32,11.30
2015,07,04,11,33,19.30
2015,07,04,11,34,14.50
2015,07,04,11,35,19.30
2015,07,04,11,36,24.20
2015,07,04,11,37,25.70
2015,07,04,11,38,17.70
2015,07,04,11,39,22.50
2015,07,04,11,40,8.10
2015,07,04,11,41,12.90
2015,07,04,11,42,9.60
2015,07,04,11,43,14.50
2015,07,04,11,44,6.40
2015,07,04,11,45,16.10
2015,07,04,11,46,25.70
2015,07,04,11,47,19.30
2015,07,04,11,48,17.70
2015,07,04,11,49,17.70
2015,07,04,11,50,17.70
2015,07,04,11,51,11.30
2015,07,04,11,52,14.50
2015,07,04,11,53,9.60
2015,07,04,11,54,8.10
2015,07,04,11,55,16.10
2015,07,04,11,56,6.40
2015,07,04,11,57,9.60
2015,07,04,11,58,3.20
2015,07,04,11,59,9.60
2015,07,04,12,00,12.90
2015,07,04,12,01,6.40
2015,07,04,12,02,16.10
2015,07,04,12,03,22.50
2015,07,04,12,04,20.90
2015,07,04,12,05,16.10
2015,07,04,12,06,12.90
2015,07,04,12,07,16.10
2015,07,04,12,08,14.50
2015,07,04,12,09,11.30
2015,07,04,12,10,9.60
2015,07,04,12,11,8.10
2015,07,04,12,12,6.40
2015,07,04,12,13,16.10
2015,07,04,12,14,16.10
2015,07,04,12,15,11.30
2015,07,04,12,16,20.90
2015,07,04,12,17,14.50
2015,07,04,12,18,16.10
2015,07,04,12,19,20.90
2015,07,04,12,20,20.90
2015,07,04,12,21,14.50
2015,07,04,12,22,6.40
2015,07,04,12,23,6.40
2015,07,04,12,24,6.40
2015,07,04,12,25,12.90
2015,07,04,12,26,8.10
2015,07,04,12,27,11.30
2015,07,04,12,28,17.70
2015,07,04,12,29,17.70
2015,07,04,12,30,16.10
2015,07,04,12,31,19.30
2015,07,04,12,32,9.60
2015,07,04,12,33,16.10
2015,07,04,12,34,16.10
2015,07,04,12,35,14.50
2015,07,04,12,36,19.30
2015,07,04,12,37,24.20
2015,07,04,12,38,12.90
2015,07,04,12,39,12.90
2015,07,04,12,40,6.40
2015,07,04,12,41,8.10
2015,07,04,12,42,14.50
2015,07,04,12,43,9.60
2015,07,04,12,44,16.10
2015,07,04,12,45,17.70
2015,07,04,12,46,14.50
2015,07,04,12,47,4.80
2015,07,04,12,48,9.60
2015,07,04,12,49,9.60
2015,07,04,12,50,6.40
2015,07,04,12,51,6.40
2015,07,04,12,52,16.10
2015,07,04,12,53,27.40
2015,07,04,12,54,9.60
2015,07,04,12,55,19.30
2015,07,04,12,56,8.10
2015,07,04,12,57,17.70
2015,07,04,12,58,22.50
2015,07,04,12,59,8.10
2015,07,04,13,00,12.90
2015,07,04,13,01,12.90
2015,07,04,13,02,17.70
2015,07,04,13,03,11.30
2015,07,04,13,04,12.90
2015,07,04,13,05,12.90
2015,07,04,13,06,12.90
2015,07,04,13,07,29.00
2015,07,04,13,08,25.70
2015,07,04,13,09,19.30
2015,07,04,13,10,8.10
2015,07,04,13,11,11.30
2015,07,04,13,12,17.70
2015,07,04,13,13,6.40
2015,07,04,13,14,8.10
2015,07,04,13,15,20.90
2015,07,04,13,16,14.50
2015,07,04,13,17,22.50
2015,07,04,13,18,6.40
2015,07,04,13,19,8.10
2015,07,04,13,20,17.70
2015,07,04,13,21,12.90
2015,07,04,13,22,14.50
2015,07,04,13,23,12.90
2015,07,04,13,24,4.80
2015,07,04,13,25,8.10
2015,07,04,13,26,14.50
2015,07,04,13,27,17.70
2015,07,04,13,28,14.50
2015,07,04,13,29,9.60
2015,07,04,13,30,8.10
2015,07,04,13,31,11.30
2015,07,04,13,32,14.50
2015,07,04,13,33,11.30
2015,07,04,13,34,8.10
2015,07,04,13,35,6.40
2015,07,04,13,36,11.30
2015,07,04,13,37,8.10
2015,07,04,13,38,8.10
2015,07,04,13,39,4.80
2015,07,04,13,40,4.80
2015,07,04,13,41,12.90
2015,07,04,13,42,11.30
2015,07,04,13,43,9.60
2015,07,04,13,44,8.10
2015,07,04,13,45,11.30
2015,07,04,13,46,12.90
2015,07,04,13,47,14.50
2015,07,04,13,48,6.40
2015,07,04,13,49,6.40
2015,07,04,13,50,16.10
2015,07,04,13,51,12.90
2015,07,04,13,52,14.50
2015,07,04,13,53,12.90
2015,07,04,13,54,8.10
2015,07,04,13,55,14.50
2015,07,04,13,56,16.10
2015,07,04,13,57,9.60
2015,07,04,13,58,6.40
2015,07,04,13,59,9.60
2015,07,04,14,00,12.90
2015,07,04,14,01,11.30
2015,07,04,14,02,6.40
2015,07,04,14,03,3.20
2015,07,04,14,04,4.80
2015,07,04,14,05,8.10
2015,07,04,14,06,14.50
2015,07,04,14,07,14.50
2015,07,04,14,08,12.90
2015,07,04,14,09,11.30
2015,07,04,14,10,9.60
2015,07,04,14,11,9.60
2015,07,04,14,12,11.30
2015,07,04,14,13,14.50
2015,07,04,14,14,8.10
2015,07,04,14,15,11.30
2015,07,04,14,16,1.60
2015,07,04,14,17,9.60
2015,07,04,14,18,12.90
2015,07,04,14,19,12.90
2015,07,04,14,20,6.40
2015,07,04,14,21,6.40
2015,07,04,14,22,20.90
2015,07,04,14,23,14.50
2015,07,04,14,24,8.10
2015,07,04,14,25,12.90
2015,07,04,14,26,14.50
2015,07,04,14,27,14.50
2015,07,04,14,28,12.90
2015,07,04,14,29,8.10
2015,07,04,14,30,16.10
2015,07,04,14,31,14.50
2015,07,04,14,32,14.50
2015,07,04,14,33,8.10
2015,07,04,14,34,9.60
2015,07,04,14,35,9.60
2015,07,04,14,36,4.80
2015,07,04,14,37,8.10
2015,07,04,14,38,9.60
2015,07,04,14,39,9.60
2015,07,04,14,40,9.60
2015,07,04,14,41,9.60
2015,07,04,14,42,9.60
2015,07,04,14,43,11.30
2015,07,04,14,44,8.10
2015,07,04,14,45,12.90
2015,07,04,14,46,14.50
2015,07,04,14,47,11.30
2015,07,04,14,48,6.40
2015,07,04,14,49,3.20
2015,07,04,14,50,4.80
2015,07,04,14,51,9.60
2015,07,04,14,52,14.50
2015,07,04,14,53,14.50
2015,07,04,14,54,8.10
2015,07,04,14,55,9.60
2015,07,04,14,56,8.10
2015,07,04,14,57,4.80
2015,07,04,14,58,11.30
2015,07,04,14,59,14.50
2015,07,04,15,00,11.30
2015,07,04,15,01,4.80
2015,07,04,15,02,6.40
2015,07,04,15,03,8.10
2015,07,04,15,04,11.30
2015,07,04,15,05,3.20
2015,07,04,15,06,6.40
2015,07,04,15,07,16.10
2015,07,04,15,08,16.10
2015,07,04,15,09,4.80
2015,07,04,15,10,6.40
2015,07,04,15,11,4.80
2015,07,04,15,12,6.40
2015,07,04,15,13,1.60
2015,07,04,15,14,6.40
2015,07,04,15,15,12.90
2015,07,04,15,16,16.10
2015,07,04,15,17,12.90
2015,07,04,15,18,16.10
2015,07,04,15,19,14.50
2015,07,04,15,20,14.50
2015,07,04,15,21,3.20
2015,07,04,15,22,12.90
2015,07,04,15,23,12.90
2015,07,04,15,24,11.30
2015,07,04,15,25,8.10
2015,07,04,15,26,17.70
2015,07,04,15,27,14.50
2015,07,04,15,28,16.10
2015,07,04,15,29,11.30
2015,07,04,15,30,8.10
2015,07,04,15,31,6.40
2015,07,04,15,32,11.30
2015,07,04,15,33,11.30
2015,07,04,15,34,4.80
2015,07,04,15,35,11.30
2015,07,04,15,36,12.90
2015,07,04,15,37,8.10
2015,07,04,15,38,6.40
2015,07,04,15,39,6.40
2015,07,04,15,40,6.40
2015,07,04,15,41,4.80
2015,07,04,15,42,9.60
2015,07,04,15,43,6.40
2015,07,04,15,44,6.40
2015,07,04,15,45,3.20
2015,07,04,15,46,8.10
2015,07,04,15,47,8.10
2015,07,04,15,48,8.10
2015,07,04,15,49,12.90
2015,07,04,15,50,11.30
2015,07,04,15,51,14.50
2015,07,04,15,52,6.40
2015,07,04,15,53,6.40
2015,07,04,15,54,8.10
2015,07,04,15,55,8.10
2015,07,04,15,56,6.40
2015,07,04,15,57,4.80
2015,07,04,15,58,9.60
2015,07,04,15,59,16.10
2015,07,04,16,00,6.40
2015,07,04,16,01,12.90
2015,07,04,16,02,16.10
2015,07,04,16,03,9.60
2015,07,04,16,04,11.30
2015,07,04,16,05,6.40
2015,07,04,16,06,11.30
2015,07,04,16,07,8.10
2015,07,04,16,08,14.50
2015,07,04,16,09,16.10
2015,07,04,16,10,12.90
2015,07,04,16,11,12.90
2015,07,04,16,12,12.90
2015,07,04,16,13,9.60
2015,07,04,16,14,12.90
2015,07,04,16,15,6.40
2015,07,04,16,16,6.40
2015,07,04,16,17,12.90
2015,07,04,16,18,11.30
2015,07,04,16,19,9.60
2015,07,04,16,20,6.40
2015,07,04,16,21,9.60
2015,07,04,16,22,11.30
2015,07,04,16,23,9.60
2015,07,04,16,24,6.40
2015,07,04,16,25,6.40
2015,07,04,16,26,6.40
2015,07,04,16,27,11.30
2015,07,04,16,28,11.30
2015,07,04,16,29,11.30
2015,07,04,16,30,6.40
2015,07,04,16,31,6.40
2015,07,04,16,32,11.30
2015,07,04,16,33,6.40
2015,07,04,16,34,9.60
2015,07,04,16,35,12.90
2015,07,04,16,36,11.30
2015,07,04,16,37,11.30
2015,07,04,16,38,11.30
2015,07,04,16,39,12.90
2015,07,04,16,40,12.90
2015,07,04,16,41,8.10
2015,07,04,16,42,6.40
2015,07,04,16,43,6.40
2015,07,04,16,44,9.60
2015,07,04,16,45,6.40
2015,07,04,16,46,12.90
2015,07,04,16,47,9.60
2015,07,04,16,48,14.50
2015,07,04,16,49,11.30
2015,07,04,16,50,9.60
2015,07,04,16,51,6.40
2015,07,04,16,52,9.60
2015,07,04,16,53,6.40
2015,07,04,16,54,6.40
2015,07,04,16,55,6.40
2015,07,04,16,56,6.40
2015,07,04,16,57,6.40
2015,07,04,16,58,8.10
2015,07,04,16,59,11.30
2015,07,04,17,00,9.60
2015,07,04,17,01,6.40
2015,07,04,17,02,6.40
2015,07,04,17,03,3.20
2015,07,04,17,04,3.20
2015,07,04,17,05,3.20
2015,07,04,17,06,4.80
2015,07,04,17,07,4.80
2015,07,04,17,08,9.60
2015,07,04,17,09,6.40
2015,07,04,17,10,6.40
2015,07,04,17,11,4.80
2015,07,04,17,12,6.40
2015,07,04,17,13,6.40
2015,07,04,17,14,4.80
2015,07,04,17,15,9.60
2015,07,04,17,16,6.40
2015,07,04,17,17,4.80
2015,07,04,17,18,3.20
2015,07,04,17,19,3.20
2015,07,04,17,20,3.20
2015,07,04,17,21,3.20
2015,07,04,17,22,4.80
2015,07,04,17,23,9.60
2015,07,04,17,24,11.30
2015,07,04,17,25,6.40
2015,07,04,17,26,3.20
2015,07,04,17,27,3.20
2015,07,04,17,28,3.20
2015,07,04,17,29,1.60
2015,07,04,17,30,4.80
2015,07,04,17,31,4.80
2015,07,04,17,32,4.80
2015,07,04,17,33,6.40
2015,07,04,17,34,4.80
2015,07,04,17,35,3.20
2015,07,04,17,36,4.80
2015,07,04,17,37,8.10
2015,07,04,17,38,9.60
2015,07,04,17,39,12.90
2015,07,04,17,40,8.10
2015,07,04,17,41,8.10
2015,07,04,17,42,4.80
2015,07,04,17,43,6.40
2015,07,04,17,44,4.80
2015,07,04,17,45,4.80
2015,07,04,17,46,4.80
2015,07,04,17,47,6.40
2015,07,04,17,48,6.40
2015,07,04,17,49,4.80
2015,07,04,17,50,4.80
2015,07,04,17,51,6.40
2015,07,04,17,52,6.40
2015,07,04,17,53,4.80
2015,07,04,17,54,4.80
2015,07,04,17,55,6.40
2015,07,04,17,56,4.80
2015,07,04,17,57,8.10
2015,07,04,17,58,9.60
2015,07,04,17,59,8.10
2015,07,04,18,00,11.30
2015,07,04,18,01,11.30
2015,07,04,18,02,4.80
2015,07,04,18,03,4.80
2015,07,04,18,04,4.80
2015,07,04,18,05,6.40
2015,07,04,18,06,8.10
2015,07,04,18,07,11.30
2015,07,04,18,08,9.60
2015,07,04,18,09,8.10
2015,07,04,18,10,9.60
2015,07,04,18,11,6.40
2015,07,04,18,12,9.60
2015,07,04,18,13,9.60
2015,07,04,18,14,6.40
2015,07,04,18,15,4.80
2015,07,04,18,16,9.60
2015,07,04,18,17,6.40
2015,07,04,18,18,6.40
2015,07,04,18,19,6.40
2015,07,04,18,20,6.40
2015,07,04,18,21,4.80
2015,07,04,18,22,11.30
2015,07,04,18,23,9.60
2015,07,04,18,24,4.80
2015,07,04,18,25,4.80
2015,07,04,18,26,9.60
2015,07,04,18,27,8.10
2015,07,04,18,28,9.60
2015,07,04,18,29,4.80
2015,07,04,18,30,6.40
2015,07,04,18,31,3.20
2015,07,04,18,32,4.80
2015,07,04,18,33,4.80
2015,07,04,18,34,4.80
2015,07,04,18,35,4.80
2015,07,04,18,36,4.80
2015,07,04,18,37,6.40
2015,07,04,18,38,4.80
2015,07,04,18,39,4.80
2015,07,04,18,40,3.20
2015,07,04,18,41,4.80
2015,07,04,18,42,3.20
2015,07,04,18,43,6.40
2015,07,04,18,44,4.80
2015,07,04,18,45,4.80
2015,07,04,18,46,6.40
2015,07,04,18,47,1.60
2015,07,04,18,48,1.60
2015,07,04,18,49,4.80
2015,07,04,18,50,4.80
2015,07,04,18,51,9.60
2015,07,04,18,52,4.80
2015,07,04,18,53,6.40
2015,07,04,18,54,4.80
2015,07,04,18,55,4.80
2015,07,04,18,56,3.20
2015,07,04,18,57,4.80
2015,07,04,18,58,3.20
2015,07,04,18,59,1.60
2015,07,04,19,00,4.80
2015,07,04,19,01,1.60
2015,07,04,19,02,1.60
2015,07,04,19,03,3.20
2015,07,04,19,04,3.20
2015,07,04,19,05,4.80
2015,07,04,19,06,4.80
2015,07,04,19,07,4.80
2015,07,04,19,08,3.20
2015,07,04,19,09,3.20
2015,07,04,19,10,3.20
2015,07,04,19,12,6.40
2015,07,04,19,13,4.80
2015,07,04,19,14,4.80
2015,07,04,19,15,6.40
2015,07,04,19,16,6.40
2015,07,04,19,17,3.20
2015,07,04,19,18,3.20
2015,07,04,19,19,4.80
2015,07,04,19,20,3.20